Location: Allos
(44.2333°N, 6.6333°E)
Time: 17:46:08
(UTC+00:00)

USA 238 DEB - Pass Details

Date: 01 December 2020
Orbit: 996 x 1216 km, 63.4° (Epoch: 22 January)

Event Time Altitude Azimuth Distance (km) Brightness Sun altitude
Rises 17:00:58 0° 181° (S) 3,706 6.8 -11.4°
Reaches altitude 10° 17:03:49 10° 171° (S) 2,773 6.0 -11.9°
Maximum altitude 17:09:20 30° 112° (ESE) 1,747 4.4 -12.8°
Enters shadow 17:13:10 18° 65° (ENE) 2,337 4.8 -13.5°
